| time (UTC) | temp F | wind direction | speed knots | gust knots | rain 1hr in | rain 24hr in | rain mn in | humidity % | barometer mb |
| 20260906043005 | 74 | 0 | 0.0 | 0.0 | 0.00 | 0.00 | 0.00 | 95 | 1010.0 |
| 20260906041505 | 74 | 0 | 0.0 | 0.0 | 0.00 | 0.00 | 0.00 | 94 | 1010.1 |
| 20260906040007 | 74 | 0 | 0.0 | 0.0 | 0.00 | 0.00 | 0.00 | 94 | 1010.1 |
| 20260906034505 | 74 | 0 | 0.0 | 0.0 | 0.00 | 0.00 | 0.00 | 94 | 1010.1 |
| 20260906033005 | 75 | 0 | 0.0 | 0.0 | 0.00 | 0.00 | 0.00 | 93 | 1010.3 |
| 20260906031526 | 75 | 0 | 0.0 | 0.0 | 0.00 | 0.00 | 0.00 | 93 | 1010.4 |
| 20260906030005 | 76 | 0 | 0.0 | 0.0 | 0.00 | 0.00 | 0.00 | 92 | 1010.3 |
| 20260906024505 | 76 | 0 | 0.0 | 0.0 | 0.00 | 0.00 | 0.00 | 91 | 1010.4 |
| 20260906023005 | 76 | 0 | 0.0 | 0.0 | 0.00 | 0.00 | 0.00 | 90 | 1010.5 |
| 20260906021505 | 77 | 0 | 0.0 | 0.0 | 0.00 | 0.00 | 0.00 | 89 | 1010.4 |
| 20260906020025 | 78 | 0 | 0.0 | 0.0 | 0.00 | 0.01 | 0.00 | 88 | 1010.6 |
| 20260906014505 | 78 | 221 | 0.0 | 0.9 | 0.00 | 0.03 | 0.00 | 88 | 1010.8 |
| 20260906013005 | 78 | 0 | 0.0 | 0.0 | 0.00 | 0.07 | 0.00 | 88 | 1010.3 |
| 20260906011505 | 78 | 0 | 0.0 | 0.0 | 0.00 | 0.09 | 0.00 | 87 | 1010.2 |
| 20260906010005 | 79 | 0 | 0.0 | 0.0 | 0.00 | 0.10 | 0.00 | 86 | 1010.0 |
| 20260906004505 | 79 | 154 | 0.0 | 1.7 | 0.00 | 0.11 | 0.00 | 85 | 1010.0 |
| 20260906003025 | 79 | 296 | 0.0 | 0.9 | 0.00 | 0.13 | 0.00 | 85 | 1009.8 |
| 20260906001504 | 80 | 62 | 0.0 | 0.9 | 0.00 | 0.14 | 0.00 | 84 | 1009.2 |
| 20260906000025 | 80 | 56 | 0.0 | 0.9 | 0.00 | 0.17 | 0.00 | 84 | 1008.9 |
| 20260905234526 | 80 | 65 | 0.0 | 0.9 | 0.00 | 0.21 | 0.00 | 83 | 1008.5 |
| 20260905233005 | 81 | 69 | 0.0 | 1.7 | 0.00 | 0.22 | 0.00 | 83 | 1008.6 |
| 20260905231504 | 81 | 61 | 0.0 | 2.6 | 0.00 | 0.22 | 0.00 | 83 | 1008.8 |
| 20260905230005 | 82 | 82 | 0.0 | 0.9 | 0.00 | 0.22 | 0.00 | 81 | 1009.1 |
| 20260905224504 | 82 | 82 | 0.0 | 0.9 | 0.00 | 0.22 | 0.00 | 80 | 1009.2 |
| 20260905223004 | 82 | 76 | 0.0 | 0.9 | 0.00 | 0.22 | 0.00 | 80 | 1008.9 |
| 20260905221504 | 83 | 72 | 0.0 | 0.9 | 0.00 | 0.22 | 0.00 | 78 | 1008.4 |
| 20260905220004 | 83 | 65 | 0.0 | 2.6 | 0.00 | 0.22 | 0.00 | 78 | 1008.1 |
| 20260905214504 | 84 | 63 | 0.0 | 2.6 | 0.00 | 0.22 | 0.00 | 78 | 1008.3 |
| 20260905213026 | 84 | 62 | 0.0 | 2.6 | 0.00 | 0.22 | 0.00 | 77 | 1008.3 |
| 20260905211504 | 85 | 49 | 0.0 | 1.7 | 0.00 | 0.22 | 0.00 | 78 | 1008.2 |
| 20260905210005 | 86 | 52 | 0.0 | 0.9 | 0.00 | 0.22 | 0.00 | 78 | 1007.8 |
| 20260905204505 | 88 | 318 | 0.0 | 2.6 | 0.00 | 0.22 | 0.00 | 75 | 1007.9 |
| 20260905203004 | 89 | 326 | 0.0 | 0.9 | 0.00 | 0.22 | 0.00 | 73 | 1007.9 |
| 20260905201505 | 90 | 84 | 0.0 | 0.9 | 0.00 | 0.23 | 0.00 | 70 | 1008.1 |
| 20260905200004 | 90 | 84 | 0.0 | 0.9 | 0.00 | 0.23 | 0.00 | 66 | 1008.1 |
| 20260905194504 | 89 | 71 | 0.0 | 1.7 | 0.00 | 0.23 | 0.00 | 68 | 1008.4 |
| 20260905193026 | 89 | 65 | 0.0 | 1.7 | 0.00 | 0.23 | 0.00 | 69 | 1008.7 |
| 20260905191504 | 88 | 62 | 0.0 | 0.9 | 0.00 | 0.23 | 0.00 | 72 | 1008.8 |
| 20260905190004 | 89 | 67 | 0.0 | 3.5 | 0.00 | 0.23 | 0.00 | 70 | 1009.0 |
| 20260905184504 | 90 | 84 | 0.0 | 0.9 | 0.00 | 0.23 | 0.00 | 71 | 1009.1 |
| 20260905183005 | 90 | 73 | 0.0 | 2.6 | 0.00 | 0.23 | 0.00 | 67 | 1009.3 |
| 20260905181504 | 91 | 107 | 0.0 | 0.9 | 0.00 | 0.23 | 0.00 | 70 | 1009.4 |
| 20260905180005 | 90 | 99 | 0.0 | 0.9 | 0.00 | 0.23 | 0.00 | 69 | 1009.3 |
| 20260905174504 | 88 | 66 | 0.9 | 2.6 | 0.00 | 0.23 | 0.00 | 73 | 1009.7 |
| 20260905173025 | 89 | 66 | 0.0 | 1.7 | 0.00 | 0.23 | 0.00 | 71 | 1009.7 |
| 20260905171525 | 89 | 74 | 0.0 | 1.7 | 0.00 | 0.23 | 0.00 | 70 | 1009.9 |
| 20260905170005 | 88 | 80 | 0.0 | 0.9 | 0.00 | 0.23 | 0.00 | 73 | 1010.0 |
| 20260905164504 | 88 | 136 | 0.0 | 0.9 | 0.00 | 0.23 | 0.00 | 75 | 1010.1 |
| 20260905163004 | 87 | 77 | 0.0 | 1.7 | 0.00 | 0.23 | 0.00 | 75 | 1010.2 |
| 20260905161504 | 87 | 71 | 0.0 | 1.7 | 0.00 | 0.23 | 0.00 | 74 | 1010.5 |
| 20260905160004 | 87 | 75 | 0.0 | 1.7 | 0.00 | 0.23 | 0.00 | 73 | 1010.7 |
| 20260905154504 | 86 | 88 | 0.0 | 0.9 | 0.00 | 0.23 | 0.00 | 75 | 1010.8 |
| 20260905153025 | 85 | 74 | 0.0 | 0.9 | 0.00 | 0.23 | 0.00 | 78 | 1010.8 |
| 20260905151504 | 84 | 152 | 0.0 | 2.6 | 0.00 | 0.23 | 0.00 | 81 | 1010.9 |
| 20260905150004 | 83 | 96 | 0.0 | 0.9 | 0.00 | 0.23 | 0.00 | 82 | 1010.7 |
| 20260905144504 | 82 | 118 | 0.0 | 1.7 | 0.00 | 0.23 | 0.00 | 84 | 1010.6 |
| 20260905143004 | 81 | 147 | 0.0 | 4.3 | 0.00 | 0.23 | 0.00 | 87 | 1010.5 |
| 20260905141504 | 80 | 148 | 0.0 | 1.7 | 0.00 | 0.23 | 0.00 | 87 | 1010.5 |
| 20260905140025 | 79 | 182 | 0.0 | 2.6 | 0.00 | 0.23 | 0.00 | 89 | 1010.6 |
| 20260905134503 | 78 | 185 | 0.0 | 2.6 | 0.00 | 0.23 | 0.00 | 91 | 1010.4 |
| 20260905133004 | 77 | 137 | 0.0 | 0.9 | 0.00 | 0.23 | 0.00 | 92 | 1010.6 |
| 20260905131504 | 76 | 248 | 0.0 | 1.7 | 0.00 | 0.23 | 0.00 | 94 | 1010.7 |
| 20260905130004 | 75 | 147 | 0.0 | 0.9 | 0.00 | 0.23 | 0.00 | 96 | 1010.8 |
| 20260905124525 | 75 | 0 | 0.0 | 0.0 | 0.00 | 0.23 | 0.00 | 97 | 1010.8 |
| 20260905123005 | 74 | 145 | 0.0 | 0.9 | 0.00 | 0.23 | 0.00 | 98 | 1010.8 |
| 20260905121503 | 73 | 0 | 0.0 | 0.0 | 0.00 | 0.23 | 0.00 | 98 | 1010.9 |
| 20260905120004 | 73 | 0 | 0.0 | 0.0 | 0.00 | 0.23 | 0.00 | 98 | 1010.6 |
| 20260905114504 | 72 | 0 | 0.0 | 0.0 | 0.00 | 0.23 | 0.00 | 98 | 1010.5 |
| 20260905113004 | 72 | 0 | 0.0 | 0.0 | 0.00 | 0.23 | 0.00 | 98 | 1010.4 |
| 20260905111503 | 71 | 0 | 0.0 | 0.0 | 0.00 | 0.23 | 0.00 | 98 | 1010.2 |
| 20260905110025 | 71 | 0 | 0.0 | 0.0 | 0.00 | 0.23 | 0.00 | 98 | 1010.0 |
| 20260905104503 | 71 | 0 | 0.0 | 0.0 | 0.00 | 0.23 | 0.00 | 98 | 1009.8 |
| 20260905103025 | 71 | 0 | 0.0 | 0.0 | 0.00 | 0.23 | 0.00 | 98 | 1009.7 |
| 20260905101504 | 71 | 0 | 0.0 | 0.0 | 0.00 | 0.23 | 0.00 | 98 | 1009.6 |
| 20260905100025 | 71 | 0 | 0.0 | 0.0 | 0.00 | 0.23 | 0.00 | 98 | 1009.5 |
| 20260905094504 | 71 | 114 | 0.0 | 0.9 | 0.00 | 0.23 | 0.00 | 98 | 1009.5 |
| 20260905093003 | 71 | 0 | 0.0 | 0.0 | 0.00 | 0.23 | 0.00 | 98 | 1009.6 |
| 20260905091504 | 71 | 0 | 0.0 | 0.0 | 0.00 | 0.23 | 0.00 | 97 | 1009.7 |
| 20260905090003 | 71 | 129 | 0.0 | 0.9 | 0.00 | 0.23 | 0.00 | 97 | 1009.7 |
| 20260905084504 | 71 | 0 | 0.0 | 0.0 | 0.00 | 0.23 | 0.00 | 97 | 1009.4 |
| 20260905083025 | 71 | 172 | 0.0 | 0.9 | 0.00 | 0.23 | 0.00 | 97 | 1009.2 |
| 20260905081503 | 71 | 0 | 0.0 | 0.0 | 0.00 | 0.23 | 0.00 | 97 | 1009.2 |
| 20260905080004 | 71 | 124 | 0.0 | 0.9 | 0.00 | 0.23 | 0.00 | 97 | 1009.4 |
| 20260905074526 | 71 | 0 | 0.0 | 0.0 | 0.00 | 0.23 | 0.00 | 97 | 1009.5 |
| 20260905073005 | 71 | 107 | 0.0 | 0.9 | 0.00 | 0.23 | 0.00 | 97 | 1009.5 |
| 20260905071505 | 71 | 0 | 0.0 | 0.0 | 0.00 | 0.23 | 0.00 | 97 | 1009.3 |
| 20260905070005 | 71 | 0 | 0.0 | 0.0 | 0.00 | 0.23 | 0.00 | 97 | 1009.3 |
| 20260905064505 | 71 | 120 | 0.0 | 0.9 | 0.00 | 0.23 | 0.00 | 97 | 1009.5 |
| 20260905063005 | 71 | 0 | 0.0 | 0.0 | 0.00 | 0.23 | 0.00 | 97 | 1009.5 |
| 20260905061505 | 71 | 110 | 0.0 | 0.9 | 0.00 | 0.23 | 0.00 | 97 | 1009.7 |
| 20260905060005 | 72 | 124 | 0.0 | 0.9 | 0.00 | 0.23 | 0.00 | 97 | 1009.8 |
| 20260905054505 | 72 | 125 | 0.0 | 0.9 | 0.00 | 0.23 | 0.00 | 97 | 1010.1 |
| 20260905053005 | 72 | 116 | 0.0 | 1.7 | 0.00 | 0.23 | 0.00 | 97 | 1010.2 |
| 20260905051505 | 72 | 79 | 0.0 | 0.9 | 0.00 | 0.23 | 0.00 | 97 | 1010.6 |
| 20260905050005 | 73 | 171 | 0.0 | 0.9 | 0.00 | 0.23 | 0.00 | 97 | 1010.8 |
| 20260905044505 | 73 | 0 | 0.0 | 0.0 | 0.00 | 0.23 | 0.00 | 97 | 1010.7 |